Childress, TX

5:06 AM CDT on May 27, 2017 (GMT -0500)
Childress Municipal

Weather History for KCDS - December, 2013

Change the Weather History Date:

Sunday, December 8, 2013

  Actual Average Record
Temperature  
Mean Temperature 29 °F 43 °F  
Max Temperature 43 °F 56 °F 76 °F (1970)
Min Temperature 15 °F 30 °F 5 °F (2005)
Degree Days  
Heating Degree Days 36 22  
Month to date heating degree days 222 168  
Since 1 July heating degree days 820 728  
Cooling Degree Days 0 0  
Month to date cooling degree days 0 0  
Year to date cooling degree days 2407 2207  
Moisture  
Dew Point 19 °F    
Average Humidity 70    
Maximum Humidity 85    
Minimum Humidity 55    
Precipitation  
Precipitation 0.00 in 0.03 in 0.24 in (1992)
Month to date precipitation 0.05 0.26  
Year to date precipitation 15.19 23.27  
Snow  
Snow 0.00 in 0.00 in - ()
Month to date snowfall 0.0 0.4  
Since 1 July snowfall 4.2 1.3  
Snow Depth -    
Sea Level Pressure  
Sea Level Pressure 30.06 in    
Wind  
Wind Speed 10 mph (South)    
Max Wind Speed 18 mph    
Max Gust Speed 25 mph    
Visibility 10 miles    
Events      
T = Trace of Precipitation, MM = Missing Value Source: NWS Daily Summary

Daily Weather History Graph

Daily Weather History Graph

Search for Another Location

Airport or City:

Trip Planner

Search our weather history database for the weather conditions in past years. The results will help you decide how hot, cold, wet, or windy it might be!

Date:

Astronomy

Dec. 08, 2013 Rise Set
Actual Time 7:35 AM CST 5:30 PM CST
Civil Twilight 7:07 AM CST 5:58 PM CST
Nautical Twilight 6:36 AM CST 6:29 PM CST
Astronomical Twilight 6:05 AM CST 7:00 PM CST
Moon 12:08 PM CST (12/8) No Moon Set
Length of Visible Light 10h 50m
Length of Day
9h 55m
Waxing Crescent, 40% of the Moon is Illuminated
Dec 8
Waxing Crescent
Dec 9
First Quarter
Dec 17
Full
Dec 25
Last Quarter
Jan 1
New

Hourly Weather History & Observations

Time (CST) Temp. Windchill Dew Point Humidity Pressure Visibility Wind Dir Wind Speed Gust Speed Precip Events Conditions
12:53 AM 16.0 °F 7.4 °F 6.1 °F 65% 30.24 in 10.0 mi South 5.8 mph - N/A   Overcast
1:53 AM 16.0 °F 7.4 °F 8.1 °F 71% 30.22 in 10.0 mi South 5.8 mph - N/A   Overcast
2:53 AM 16.0 °F 6.3 °F 8.1 °F 71% 30.19 in 10.0 mi South 6.9 mph - N/A   Overcast
3:53 AM 16.0 °F 5.3 °F 9.0 °F 74% 30.16 in 10.0 mi South 8.1 mph - N/A   Overcast
4:53 AM 16.0 °F 4.4 °F 10.0 °F 77% 30.14 in 10.0 mi SSW 9.2 mph - N/A   Overcast
5:48 AM 17.6 °F 7.3 °F 10.4 °F 73% 30.05 in 10.0 mi SW 8.1 mph - N/A   Overcast
5:53 AM 17.1 °F 5.8 °F 10.0 °F 74% 30.12 in 10.0 mi SW 9.2 mph - N/A   Overcast
6:21 AM 17.1 °F 6.6 °F 10.9 °F 77% 30.04 in 10.0 mi South 8.1 mph - N/A   Overcast
6:53 AM 17.1 °F 7.6 °F 10.9 °F 77% 30.11 in 10.0 mi South 6.9 mph - N/A   Overcast
7:45 AM 18.0 °F 6.9 °F 12.0 °F 78% 30.02 in 10.0 mi South 9.2 mph - N/A   Overcast
7:53 AM 18.0 °F 6.9 °F 12.0 °F 78% 30.09 in 10.0 mi South 9.2 mph - N/A   Overcast
8:22 AM 19.0 °F 6.8 °F 12.9 °F 77% 30.01 in 10.0 mi South 11.5 mph - N/A   Overcast
8:53 AM 19.9 °F 7.9 °F 15.1 °F 81% 30.07 in 10.0 mi South 11.5 mph - N/A   Overcast
9:53 AM 24.1 °F 12.0 °F 18.0 °F 77% 30.05 in 10.0 mi South 13.8 mph - N/A   Overcast
10:17 AM 25.0 °F 13.1 °F 18.0 °F 75% 29.98 in 10.0 mi South 13.8 mph - N/A   Mostly Cloudy
10:30 AM 26.1 °F 15.0 °F 19.0 °F 75% 29.98 in 10.0 mi South 12.7 mph - N/A   Scattered Clouds
10:53 AM 27.0 °F 15.2 °F 19.0 °F 72% 30.04 in 10.0 mi South 15.0 mph - N/A   Partly Cloudy
11:53 AM 30.9 °F 20.2 °F 21.9 °F 69% 30.02 in 10.0 mi SSW 15.0 mph - N/A   Clear
12:53 PM 35.1 °F 26.4 °F 25.0 °F 67% 29.96 in 10.0 mi SSW 12.7 mph - N/A   Clear
1:53 PM 37.9 °F 29.6 °F 27.0 °F 65% 29.94 in 10.0 mi SSW 13.8 mph - N/A   Clear
2:53 PM 41.0 °F 35.2 °F 27.0 °F 57% 29.93 in 10.0 mi South 9.2 mph - N/A   Clear
3:53 PM 43.0 °F 36.8 °F 28.9 °F 58% 29.92 in 10.0 mi South 11.5 mph - N/A   Clear
4:53 PM 42.1 °F 36.6 °F 30.0 °F 62% 29.94 in 10.0 mi SSE 9.2 mph - N/A   Clear
5:53 PM 37.0 °F 31.6 °F 28.9 °F 73% 29.97 in 10.0 mi ESE 6.9 mph - N/A   Clear
6:53 PM 36.0 °F 31.1 °F 28.0 °F 73% 30.01 in 10.0 mi SSE 5.8 mph - N/A   Clear
7:53 PM 34.0 °F 28.8 °F 28.0 °F 79% 30.03 in 10.0 mi SSE 5.8 mph - N/A   Clear
8:53 PM 33.1 °F 27.7 °F 28.0 °F 82% 30.06 in 10.0 mi North 5.8 mph - N/A   Clear
9:53 PM 30.9 °F 21.7 °F 26.1 °F 82% 30.10 in 10.0 mi NNE 11.5 mph - N/A   Clear
10:53 PM 30.0 °F 20.5 °F 23.0 °F 75% 30.13 in 10.0 mi NNE 11.5 mph - N/A   Clear
11:20 PM 27.0 °F 14.7 °F 23.0 °F 85% 30.10 in 10.0 mi NE 16.1 mph 23.0 mph N/A   Partly Cloudy
11:39 PM 26.1 °F 14.0 °F 21.0 °F 81% 30.11 in 10.0 mi NE 15.0 mph - N/A   Mostly Cloudy
11:53 PM 25.0 °F 13.6 °F 21.0 °F 85% 30.17 in 9.0 mi NE 12.7 mph 19.6 mph N/A   Overcast